Denver, CO

7:00 AM MDT on August 23, 2017 (GMT -0600)
Denver International

Weather History for KDEN - March, 2012

Change the Weather History Date:

Wednesday, March 28, 2012

  Actual Average Record
Temperature  
Mean Temperature 58 °F 43 °F  
Max Temperature 75 °F 58 °F 83 °F (1963)
Min Temperature 40 °F 29 °F -11 °F (1886)
Degree Days  
Heating Degree Days 7 22  
Month to date heating degree days 467 699  
Since 1 July heating degree days 4847 5138  
Cooling Degree Days 0 0  
Month to date cooling degree days 0 0  
Year to date cooling degree days 0 0  
Growing Degree Days 7 (Base 50)    
Moisture  
Dew Point 20 °F    
Average Humidity 32    
Maximum Humidity 54    
Minimum Humidity 9    
Precipitation  
Precipitation 0.00 in 0.04 in 1.11 in (1992)
Month to date precipitation 0.03 0.80  
Year to date precipitation 1.19 1.58  
Snow  
Snow 0.00 in - - ()
Month to date snowfall T  
Since 1 July snowfall 54.6  
Snow Depth 0.00 in    
Sea Level Pressure  
Sea Level Pressure 29.79 in    
Wind  
Wind Speed 9 mph (South)    
Max Wind Speed 20 mph    
Max Gust Speed 26 mph    
Visibility 10 miles    
Events      
T = Trace of Precipitation, MM = Missing Value Source: NWS Daily Summary

Daily Weather History Graph

Daily Weather History Graph

Search for Another Location

Airport or City:

Trip Planner

Search our weather history database for the weather conditions in past years. The results will help you decide how hot, cold, wet, or windy it might be!

Date:

Astronomy

Mar. 28, 2012 Rise Set
Actual Time 6:48 AM MDT 7:19 PM MDT
Civil Twilight 6:21 AM MDT 7:46 PM MDT
Nautical Twilight 5:49 AM MDT 8:18 PM MDT
Astronomical Twilight 5:16 AM MDT 8:51 PM MDT
Moon 10:07 AM MDT (3/28) 12:23 AM MDT (3/28)
Length of Visible Light 13h 25m
Length of Day
12h 31m
Waxing Crescent, 31% of the Moon is Illuminated
Mar 28
Waxing Crescent
Mar 30
First Quarter
Apr 6
Full
Apr 13
Last Quarter
Apr 21
New

Hourly Weather History & Observations

Time (MDT) Temp. Windchill Dew Point Humidity Pressure Visibility Wind Dir Wind Speed Gust Speed Precip Events Conditions
12:53 AM 42.1 °F 34.9 °F 21.9 °F 45% 29.88 in 10.0 mi South 13.8 mph - N/A   Scattered Clouds
1:53 AM 46.9 °F - 24.1 °F 41% 29.86 in 10.0 mi South 16.1 mph - N/A   Partly Cloudy
2:53 AM 46.0 °F 41.0 °F 25.0 °F 44% 29.87 in 10.0 mi SSW 10.4 mph - N/A   Partly Cloudy
3:53 AM 39.9 °F 33.9 °F 25.0 °F 55% 29.86 in 10.0 mi SSW 9.2 mph - N/A   Partly Cloudy
4:53 AM 42.1 °F 36.6 °F 25.0 °F 51% 29.87 in 10.0 mi SW 9.2 mph - N/A   Scattered Clouds
5:53 AM 41.0 °F 33.9 °F 24.1 °F 51% 29.88 in 10.0 mi WSW 12.7 mph - N/A   Scattered Clouds
6:53 AM 41.0 °F 37.1 °F 21.9 °F 47% 29.90 in 10.0 mi West 5.8 mph - N/A   Scattered Clouds
7:53 AM 46.0 °F 43.1 °F 23.0 °F 40% 29.92 in 10.0 mi WSW 5.8 mph - N/A   Scattered Clouds
8:53 AM 52.0 °F - 23.0 °F 32% 29.91 in 10.0 mi West 8.1 mph - N/A   Mostly Cloudy
9:53 AM 55.0 °F - 23.0 °F 29% 29.90 in 10.0 mi SSW 3.5 mph - N/A   Mostly Cloudy
10:53 AM 61.0 °F - 21.0 °F 21% 29.88 in 10.0 mi Variable 3.5 mph - N/A   Mostly Cloudy
11:53 AM 68.0 °F - 12.9 °F 12% 29.85 in 10.0 mi South 5.8 mph - N/A   Mostly Cloudy
12:53 PM 69.1 °F - 15.1 °F 13% 29.81 in 10.0 mi SE 4.6 mph - N/A   Mostly Cloudy
1:53 PM 72.0 °F - 16.0 °F 12% 29.75 in 10.0 mi SSE 9.2 mph 21.9 mph N/A   Mostly Cloudy
2:53 PM 73.0 °F - 12.9 °F 10% 29.71 in 10.0 mi East 9.2 mph 26.5 mph N/A   Mostly Cloudy
3:53 PM 75.0 °F - 15.1 °F 10% 29.69 in 10.0 mi ESE 9.2 mph 18.4 mph N/A   Mostly Cloudy
4:53 PM 73.9 °F - 12.9 °F 10% 29.67 in 10.0 mi East 12.7 mph - N/A   Mostly Cloudy
5:53 PM 73.0 °F - 14.0 °F 11% 29.67 in 10.0 mi East 13.8 mph - N/A   Mostly Cloudy
6:53 PM 64.9 °F - 18.0 °F 16% 29.68 in 10.0 mi East 10.4 mph - N/A   Mostly Cloudy
7:53 PM 55.9 °F - 19.9 °F 25% 29.69 in 10.0 mi NE 9.2 mph - N/A   Scattered Clouds
8:53 PM 54.0 °F - 18.0 °F 24% 29.69 in 10.0 mi ENE 3.5 mph - N/A   Partly Cloudy
9:53 PM 43.0 °F 37.7 °F 18.0 °F 37% 29.73 in 10.0 mi South 9.2 mph - N/A   Partly Cloudy
10:53 PM 51.1 °F - 21.9 °F 32% 29.70 in 10.0 mi SSW 18.4 mph - N/A   Partly Cloudy
11:53 PM 51.1 °F - 19.9 °F 29% 29.68 in 10.0 mi SW 9.2 mph - N/A   Partly Cloudy